Overview Statistics Trail Chart Weather Telemetry Raw packets
 

This is the latest recevied weather packets stored in our database for station/object K1RFS. If no packets are shown the sender has not sent any weather packets the latest 10 day(s).

<< 36 37 38 39 40 41 42 >>
Time Temp. Humidity Pressure Rain* Wind** Luminosity Snow
1788445962 17.78° C 24% 1000.9 hPa 0 mm - 23 W/m² -
1788445658 17.78° C 24% 1001 hPa 0 mm - 22 W/m² -
1788445354 17.22° C 24% 1000.8 hPa 0 mm - 22 W/m² -
1788445049 17.22° C 24% 1000.8 hPa 0 mm - 22 W/m² -
1788444745 16.67° C 26% 1001.2 hPa 0 mm - 21 W/m² -
1788444440 15.56° C 24% 1000.8 hPa 0 mm - 21 W/m² -
1788444134 15.56° C 28% 1000.9 hPa 0 mm - 20 W/m² -
1788443830 15° C 28% 1000.9 hPa 0 mm - 19 W/m² -
1788443525 15° C 28% 1000.8 hPa 0 mm - 18 W/m² -
1788443224 15° C 28% 1000.8 hPa 0 mm - 16 W/m² -
1788442920 14.44° C 30% 1000.8 hPa 0 mm - 15 W/m² -
1788442618 13.89° C 30% 1000.8 hPa 0 mm - 14 W/m² -
1788442314 13.89° C 31% 1000.7 hPa 0 mm - 13 W/m² -
1788442014 13.89° C 32% 1000.7 hPa 0 mm - 11 W/m² -
1788441714 13.89° C 32% 1000.5 hPa 0 mm - 9 W/m² -
1788441409 14.44° C 31% 1000.6 hPa 0 mm - 7 W/m² -
1788441109 14.44° C 29% 1000.5 hPa 0 mm - 6 W/m² -
1788440804 15° C 28% 1000.2 hPa 0 mm - 4 W/m² -
1788440504 15.56° C 27% 1000.4 hPa 0 mm - 2 W/m² -
1788440202 16.11° C 23% 1000 hPa 0 mm - 2 W/m² -
1788439898 16.67° C 22% 1000 hPa 0 mm - 1 W/m² -
1788439597 16.67° C 23% 1000.1 hPa 0 mm - 0 W/m² -
1788439292 16.67° C 23% 1000.1 hPa 0 mm - 0 W/m² -
1788438991 16.67° C 22% 1000.1 hPa 0 mm - 0 W/m² -
1788438690 15° C 23% 1000.1 hPa 0 mm - 0 W/m² -

* Rain latest hour (hover to see other rain measurements)
** Current wind speed in m/s (hover to see current wind gust speed)